#timestamp,LO_Frequency,Hit,StdDev 
1609392855.9,286046990.2,P
1609392875.7,286046992.8,P
1609392895.5,286046991.0,P
1609392915.4,286046990.6,Y
1609392935.2,286046998.7,P
1609392955.0,286046998.6,N
1609392956.0,286046998.6,N
1609392975.8,286046999.0,N
1609392995.6,286047001.0,N
1609393015.5,286046998.3,N
1609393035.3,286046999.9,N
1609393055.1,286047000.3,N
1609393075.9,286047000.8,N
1609393095.7,286046998.4,N
1609393115.5,286047000.8,N
1609393135.4,286047001.2,N
1609393155.2,286047001.0,N
1609393175.1,286047000.3,N
1609393176.0,286047000.3,N
1609393195.8,286047000.4,N
1609393215.6,286047001.1,N
1609393235.5,286047000.8,N
1609393255.3,286046998.7,N
1609393275.1,286047001.2,N
1609393295.9,286046998.1,N
1609393315.7,286046998.1,N
1609393335.6,286046997.0,N
1609393355.4,286046996.9,N
1609393375.2,286046996.6,N
1609393395.1,286046996.9,N
1609393396.0,286046996.9,N
1609393415.8,286046997.9,N
1609393435.7,286046997.2,N
1609393455.5,286046997.5,N
1609393475.3,286046997.7,N
1609393495.2,286046997.0,N
1609393515.0,286046999.6,N
1609393515.9,286046999.6,N
1609393535.7,286046999.0,N
1609393555.6,286046998.3,N
1609393575.4,286046999.5,N
1609393595.3,286046999.5,N
1609393615.1,286046998.6,N
1609393616.0,286046998.6,N
1609393635.8,286046998.1,N
1609393655.7,286047000.0,N
1609393675.5,286046999.1,N
1609393695.3,286047001.1,N
1609393715.2,286046998.5,N
1609393735.0,286046999.0,N
1609393735.9,286046999.0,N
1609393755.8,286046998.6,N
1609393775.6,286046998.8,N
1609393795.4,286046999.5,N
1609393815.3,286046996.8,N
1609393835.1,286046997.3,N
1609393855.8,286046997.0,N
1609393875.7,286046999.1,N
1609393895.5,286046999.1,N
1609393915.4,286046998.3,N
1609393935.2,286046999.1,N
1609393955.0,286046999.6,N
1609393955.9,286046999.6,N
1609393975.8,286046997.3,N
1609393995.6,286046997.7,N
1609394015.4,286046999.6,N
1609394035.3,286046999.5,N
1609394055.1,286046996.9,Y
1609394075.9,286046999.9,P
1609394095.7,286047000.6,N
1609394115.5,286047000.6,N
1609394135.4,286046999.8,N
1609394155.2,286047000.0,N
1609394175.0,286046999.9,N
1609394176.0,286046999.9,N
1609394195.8,286047000.1,N
1609394215.6,286046998.5,Y
1609394235.5,286047000.6,P
1609394255.3,286047000.8,N
1609394275.1,286046998.2,P
1609394295.9,286046998.1,N
1609394315.7,286046999.4,N
1609394335.6,286046998.8,N
1609394355.4,286046999.0,N
1609394375.2,286046998.6,N
1609394395.1,286046997.0,Y
1609394396.0,286046997.0,P
